User: anonymous   Login
Location: Maddington
(51.2000°N, 1.9167°W)
Time: 18:43:36
(UTC+00:00)
Language:

Cosmos 1125 Rocket - Orbit

View from above orbital plane
View from above orbital plane
View from above satellite
View from above satellite

Ground track
Ground track

The orbit data is extracted from the following two-line orbital elements,

1 11511U 79078B   21212.86720987  .00000039  00000-0  22139-4 0  9998
2 11511  74.0357  67.4799 0016426 301.5102  58.4445 14.36933526194589
Epoch (UTC): 31 July 2021 20:48:46
Eccentricity: 0.0016426
inclination: 74.0357°
perigee height: 757 km
apogee height: 780 km
right ascension of ascending node: 67.4799°
argument of perigee: 301.5102°
revolutions per day: 14.36933526
mean anomaly at epoch: 58.4445°
orbit number at epoch: 19458

The dashed part of the orbit path shows where the satellite is in the earth's shadow,  

DLR